Frenchville, ME

10:51 PM EDT on October 23, 2017 (GMT -0400)
Northern Aroostook Regional

Weather History for KFVE - November, 2014

Change the Weather History Date:

Tuesday, November 18, 2014

  Actual Average Record
Temperature  
Mean Temperature 24 °F 29 °F  
Max Temperature 31 °F 35 °F 52 °F (2013)
Min Temperature 17 °F 23 °F 10 °F (1999)
Degree Days  
Heating Degree Days 41    
Month to date heating degree days 633  
Since 1 July heating degree days 1754  
Cooling Degree Days 0    
Month to date cooling degree days 0  
Year to date cooling degree days 139  
Moisture  
Dew Point 21 °F    
Average Humidity 81    
Maximum Humidity 100    
Minimum Humidity 53    
Precipitation  
Precipitation T in 0.11 in 0.71 in (2013)
Month to date precipitation 0.95 1.71  
Year to date precipitation 31.64 29.83  
Sea Level Pressure  
Sea Level Pressure 29.30 in    
Wind  
Wind Speed 15 mph (SW)    
Max Wind Speed 31 mph    
Max Gust Speed 43 mph    
Visibility 7 miles    
Events Fog , Snow    
T = Trace of Precipitation, MM = Missing Value Source: NWS Daily Summary

Daily Weather History Graph

Daily Weather History Graph

Search for Another Location

Airport or City:

Trip Planner

Search our weather history database for the weather conditions in past years. The results will help you decide how hot, cold, wet, or windy it might be!

Date:

Astronomy

Nov. 18, 2014 Rise Set
Actual Time 6:41 AM EST 3:54 PM EST
Civil Twilight 6:08 AM EST 4:28 PM EST
Nautical Twilight 5:30 AM EST 5:05 PM EST
Astronomical Twilight 4:54 AM EST 5:41 PM EST
Moon 2:20 AM EST (11/18) 2:02 PM EST (11/18)
Length of Visible Light 10h 20m
Length of Day
9h 12m
Waning Crescent, 15% of the Moon is Illuminated
Nov 18
Waning Crescent
Nov 22
New
Nov 29
First Quarter
Dec 6
Full
Dec 14
Last Quarter

Hourly Weather History & Observations

Time (EST) Temp. Windchill Dew Point Humidity Pressure Visibility Wind Dir Wind Speed Gust Speed Precip Events Conditions
12:41 AM 28.0 °F 19.3 °F 28.0 °F 100% 29.31 in 2.5 mi East 9.2 mph - N/A   Overcast
12:53 AM 28.0 °F 18.6 °F 28.0 °F 100% 29.32 in 3.0 mi East 10.4 mph - N/A   Overcast
1:45 AM 28.9 °F 22.8 °F 28.0 °F 96% 29.31 in 1.8 mi SE 5.8 mph - N/A   Overcast
1:50 AM 28.4 °F 24.6 °F 28.4 °F 100% 29.30 in 1.2 mi SE 3.5 mph - N/A   Overcast
1:53 AM 28.9 °F 22.8 °F 28.0 °F 96% 29.33 in 1.0 mi SE 5.8 mph - N/A   Mist
2:02 AM 28.9 °F 21.9 °F 28.0 °F 96% 29.28 in 0.5 mi ESE 6.9 mph - N/A Fog Light Freezing Fog
2:53 AM 28.9 °F 22.8 °F 28.9 °F 100% 29.30 in 0.2 mi SSE 5.8 mph - N/A Fog Light Freezing Fog
3:53 AM 30.0 °F 26.5 °F 28.9 °F 96% 29.26 in 0.2 mi South 3.5 mph - N/A Fog Light Freezing Fog
4:53 AM 30.0 °F 24.1 °F 28.9 °F 96% 29.25 in 0.2 mi South 5.8 mph - N/A Fog Light Freezing Fog
5:53 AM 30.0 °F 22.4 °F 28.9 °F 96% 29.25 in 0.5 mi South 8.1 mph - N/A Fog Light Freezing Fog
6:29 AM 30.0 °F 21.7 °F 28.9 °F 96% 29.22 in 1.5 mi West 9.2 mph - 0.00 in Snow Light Snow
6:31 AM 30.0 °F 20.5 °F 28.9 °F 96% 29.22 in 3.0 mi West 11.5 mph - 0.00 in Snow Light Snow
6:39 AM 30.0 °F 20.5 °F 28.9 °F 96% 29.22 in 10.0 mi West 11.5 mph - 0.00 in   Overcast
6:53 AM 30.0 °F 19.1 °F 28.0 °F 92% 29.25 in 10.0 mi West 15.0 mph - 0.00 in   Overcast
7:53 AM 30.0 °F 23.2 °F 28.0 °F 92% 29.25 in 10.0 mi WSW 6.9 mph - N/A   Overcast
8:23 AM 30.0 °F 21.1 °F 27.0 °F 88% 29.21 in 10.0 mi WSW 10.4 mph - 0.00 in Snow Light Snow
8:53 AM 30.0 °F 19.1 °F 26.1 °F 85% 29.24 in 10.0 mi WSW 15.0 mph - 0.00 in   Partly Cloudy
9:50 AM 30.2 °F 18.5 °F 24.8 °F 80% 29.22 in 10.0 mi SW 17.3 mph 29.9 mph 0.00 in   Mostly Cloudy
9:53 AM 30.9 °F 19.8 °F 25.0 °F 79% 29.24 in 10.0 mi SW 16.1 mph 25.3 mph 0.00 in   Overcast
10:53 AM 27.0 °F 13.2 °F 19.0 °F 72% 29.26 in 10.0 mi WSW 20.7 mph 35.7 mph 0.00 in   Overcast
11:30 AM 26.1 °F 14.5 °F 21.0 °F 81% 29.24 in 1.8 mi WSW 13.8 mph 26.5 mph 0.00 in Snow Light Snow
11:39 AM 25.0 °F 12.6 °F 19.9 °F 81% 29.24 in 1.5 mi WSW 15.0 mph 25.3 mph 0.00 in Snow Light Snow
11:42 AM 25.0 °F 12.6 °F 19.9 °F 81% 29.24 in 2.0 mi SW 15.0 mph 25.3 mph 0.00 in Snow Light Snow
11:51 AM 26.6 °F 15.2 °F 19.4 °F 74% 29.24 in 9.0 mi WSW 13.8 mph 28.8 mph 0.00 in   Overcast
11:53 AM 26.1 °F 15.6 °F 19.0 °F 75% 29.27 in 9.0 mi WSW 11.5 mph 28.8 mph 0.00 in   Overcast
12:35 PM 26.1 °F 11.0 °F 16.0 °F 66% 29.24 in 10.0 mi WSW 24.2 mph 36.8 mph 0.00 in   Overcast
12:53 PM 27.0 °F 15.6 °F 17.1 °F 66% 29.27 in 10.0 mi WSW 13.8 mph 36.8 mph 0.00 in   Overcast
1:53 PM 27.0 °F 12.5 °F 12.0 °F 53% 29.30 in 10.0 mi WSW 23.0 mph 36.8 mph N/A   Overcast
2:53 PM 24.1 °F 10.1 °F 10.0 °F 55% 29.31 in 10.0 mi WSW 18.4 mph 41.4 mph N/A   Partly Cloudy
3:53 PM 21.9 °F 5.1 °F 9.0 °F 58% 29.36 in 10.0 mi WSW 25.3 mph 33.4 mph N/A   Scattered Clouds
4:53 PM 19.9 °F 3.5 °F 9.0 °F 62% 29.37 in 10.0 mi WSW 21.9 mph 33.4 mph N/A   Scattered Clouds
5:53 PM 19.9 °F 3.9 °F 8.1 °F 60% 29.40 in 10.0 mi WSW 20.7 mph 31.1 mph N/A   Scattered Clouds
6:53 PM 19.0 °F 2.0 °F 8.1 °F 62% 29.42 in 10.0 mi WSW 23.0 mph 28.8 mph N/A   Mostly Cloudy
7:53 PM 19.0 °F 3.6 °F 9.0 °F 65% 29.43 in 10.0 mi WSW 18.4 mph 31.1 mph N/A   Mostly Cloudy
8:53 PM 18.0 °F 3.1 °F 10.9 °F 74% 29.44 in 10.0 mi SW 16.1 mph 25.3 mph N/A   Overcast
9:33 PM 17.1 °F 4.3 °F 12.0 °F 81% 29.40 in 9.0 mi SW 11.5 mph 21.9 mph 0.00 in Snow Light Snow
9:53 PM 17.1 °F 3.6 °F 12.0 °F 81% 29.44 in 9.0 mi SW 12.7 mph 20.7 mph 0.00 in   Overcast
10:53 PM 18.0 °F 3.6 °F 12.0 °F 78% 29.44 in 10.0 mi WSW 15.0 mph 26.5 mph 0.00 in   Overcast
11:53 PM 19.0 °F 6.8 °F 10.0 °F 68% 29.44 in 10.0 mi WSW 11.5 mph 34.5 mph N/A   Overcast